EST,Max TemperatureF,Mean TemperatureF,Min TemperatureF,Max Dew PointF,MeanDew PointF,Min DewpointF,Max Humidity, Mean Humidity, Min Humidity, Max Sea Level PressureIn, Mean Sea Level PressureIn, Min Sea Level PressureIn, Max VisibilityMiles, Mean VisibilityMiles, Min VisibilityMiles, Max Wind SpeedMPH, Mean Wind SpeedMPH, Max Gust SpeedMPH,PrecipitationIn, CloudCover, Events, WindDirDegrees
1997-12-1,30,24,18,30,23,11,100,87,68,29.48,29.39,29.34,10,3,1,12,3,24,0.00,8,Snow,336
1997-12-2,27,22,18,21,19,12,86,82,74,29.83,29.60,29.42,10,3,0,24,14,34,0.00,8,Fog-Snow,304
1997-12-3,30,26,23,20,19,18,85,77,64,29.98,29.92,29.86,10,10,10,10,6,18,0.04,7,,290
1997-12-4,33,28,24,31,27,18,96,83,69,29.54,29.52,29.36,10,10,6,9,2,,0.03,8,Rain,50
1997-12-5,34,32,30,32,30,28,100,94,87,29.54,29.41,29.33,10,3,0,4,0,,0.15,8,Fog-Snow,303
1997-12-6,30,27,24,27,25,23,96,85,72,29.41,29.35,29.30,10,8,1,6,2,,0.09,8,Snow,284
1997-12-7,32,28,25,28,24,21,88,83,69,29.71,29.51,29.37,10,8,2,14,5,21,0.00,8,Snow,290
1997-12-8,30,18,1,22,14,-1,95,77,64,30.12,29.95,29.73,10,10,7,13,6,23,0.02,3,,303
1997-12-9,26,13,0,17,8,-5,96,85,60,30.13,30.06,30.00,10,9,2,0,0,,0.03,4,,-1
1997-12-10,30,15,0,17,6,-4,92,83,56,30.01,29.95,29.90,10,10,6,8,1,,0.00,1,,349
1997-12-11,26,10,-5,14,0,-10,100,83,55,30.18,30.08,29.96,10,7,0,4,0,,0.00,2,Fog,220
1997-12-12,24,10,-5,22,13,-10,92,85,79,30.15,29.95,29.77,10,8,2,4,0,,0.00,7,Snow,121
1997-12-13,30,26,23,27,23,20,93,83,69,29.81,29.68,29.58,10,7,1,9,2,,0.01,8,Snow,276
1997-12-14,30,16,3,25,14,-12,88,71,46,29.96,29.58,29.43,10,5,0,22,8,37,0.00,6,Fog-Rain-Snow,291
1997-12-15,17,8,0,9,-5,-13,73,52,32,30.07,30.01,29.89,10,10,10,13,5,16,0.00,5,,328
1997-12-16,32,16,1,18,9,-3,92,79,54,30.08,29.97,29.84,10,10,8,6,1,,0.00,0,,340
1997-12-17,39,24,9,26,17,6,96,77,55,29.89,29.84,29.79,10,10,8,9,2,,0.00,3,,288
1997-12-18,33,24,14,20,12,7,84,60,34,30.04,29.98,29.89,10,10,10,13,6,18,0.00,2,,295
1997-12-19,37,28,19,30,23,13,85,72,61,29.92,29.81,29.71,10,10,5,13,4,21,0.01,8,Snow,289
1997-12-20,35,19,1,28,16,-2,84,70,58,30.12,29.90,29.80,10,10,10,14,9,25,0.00,6,,309
1997-12-21,17,5,-7,4,-2,-11,87,74,54,30.40,30.30,30.14,10,10,10,10,2,16,0.00,0,,316
1997-12-22,19,4,-11,3,-6,-16,87,74,43,30.51,30.42,30.31,10,10,8,4,0,,0.00,0,,290
1997-12-23,25,12,0,25,18,-5,100,91,79,30.28,29.97,29.89,10,2,0,12,4,,0.00,8,Fog-Snow,348
1997-12-24,28,16,5,24,15,1,96,84,66,30.24,30.11,29.93,10,5,0,12,2,,0.13,5,Fog-Snow,304
1997-12-25,35,22,9,32,28,6,100,92,81,30.11,29.72,29.55,10,4,0,17,5,22,0.09,7,Fog-Rain-Snow,131
1997-12-26,35,32,28,33,30,24,100,87,70,29.79,29.66,29.58,10,7,2,14,2,21,0.19,8,Rain-Snow,291
1997-12-27,34,29,23,28,26,14,96,86,60,29.82,29.75,29.66,10,7,1,9,2,,0.05,7,Snow,345
1997-12-28,19,6,-9,10,0,-14,88,71,50,30.08,29.88,29.70,10,10,5,8,4,,0.00,0,,339
1997-12-29,30,8,-15,27,1,-20,93,80,57,30.14,29.96,29.57,10,9,2,6,1,,0.00,2,,325
1997-12-30,35,28,21,32,25,16,100,88,70,29.50,28.96,28.68,10,4,0,16,6,26,0.00,8,Fog-Rain-Snow,303
1997-12-31,21,8,-5,18,2,-14,86,71,59,30.17,29.57,29.12,10,6,1,16,10,26,0.00,6,Snow,285